Location: Krakow
(50.0212°N, 19.9423°E)
Time: 03:11:40
(UTC+02:00)

UWE-3 - Pass Details

Date: 26 April 2024
Orbit: 569 x 652 km, 97.8° (Epoch: 23 May)

Event Time Altitude Azimuth Distance (km) Brightness Sun altitude
Rises 03:54:49 0° 8° (N) 2,860 ? -13.1°
Reaches altitude 10° 03:57:02 10° 3° (N) 1,966 ? -12.9°
Maximum altitude 04:01:07 47° 290° (WNW) 828 ? -12.4°
Enters shadow 04:04:10 17° 223° (SW) 1,571 ? -12.0°
